When you browse on this site, cookies collect data to enhance your experience and personalize the content and advertising you see.
Visit our Privacy Policy to learn more. By continuing to use the site, you agree to this use of cookies and data.
  • In Deutschland
  • Länderverzeichnis
  • Für 7 Tage
  • Wassertemperatur
  • Satellitenkarten
  • Wetterkarte
  • Widgets
  • user-avatar
    Anmelden

    Stündliche Wetter Soltau

    Heute, 20 Januar, Sonntag

    Zeit Temperatur Niederschläge Wind Luftdruck Luftfeuchtigkeit
    00:00 -2°C° 0 mm 2 m/S 757 mmHg 85%
    01:00 -2°C° 0 mm 2 m/S 757 mmHg 89%
    02:00 -3°C° 0 mm 2 m/S 756 mmHg 89%
    03:00 -3°C° 0 mm 2 m/S 756 mmHg 89%
    04:00 -1°C° 0 mm 1 m/S 756 mmHg 89%
    05:00 -1°C° 0 mm 1 m/S 756 mmHg 88%
    06:00 -1°C° 0 mm 1 m/S 756 mmHg 88%
    07:00 -2°C° 0 mm 1 m/S 757 mmHg 82%
    08:00 -3°C° 0 mm 2 m/S 757 mmHg 79%
    09:00 -3°C° 0 mm 2 m/S 757 mmHg 76%
    10:00 -3°C° 0 mm 2 m/S 758 mmHg 73%
    11:00 -2°C° 0 mm 2 m/S 758 mmHg 67%
    12:00 +1°C° 0 mm 1 m/S 758 mmHg 62%
    13:00 +1°C° 0 mm 1 m/S 758 mmHg 62%
    14:00 0°C° 0 mm 1 m/S 758 mmHg 62%
    15:00 0°C° 0 mm 1 m/S 758 mmHg 62%
    16:00 0°C° 0 mm 1 m/S 758 mmHg 62%
    17:00 0°C° 0 mm 1 m/S 759 mmHg 63%
    18:00 -1°C° 0 mm 1 m/S 759 mmHg 64%
    19:00 -1°C° 0 mm 1 m/S 759 mmHg 66%
    20:00 -1°C° 0 mm 1 m/S 760 mmHg 64%
    21:00 -1°C° 0 mm 1 m/S 760 mmHg 62%
    22:00 -2°C° 0 mm 1 m/S 760 mmHg 61%
    23:00 -2°C° 0 mm 1 m/S 760 mmHg 60%

    Morgen, 21 Januar, Montag

    Zeit Temperatur Niederschläge Wind Luftdruck Luftfeuchtigkeit
    00:00 -2°C° 0 mm 1 m/S 760 mmHg 60%
    01:00 -2°C° 0 mm 1 m/S 761 mmHg 60%
    02:00 -2°C° 0 mm 1 m/S 761 mmHg 61%
    03:00 -2°C° 0 mm 1 m/S 761 mmHg 62%
    04:00 -2°C° 0 mm 1 m/S 761 mmHg 63%
    05:00 -2°C° 0 mm 1 m/S 760 mmHg 63%
    06:00 -2°C° 0 mm 1 m/S 760 mmHg 63%
    07:00 -4°C° 0 mm 2 m/S 760 mmHg 64%
    08:00 -4°C° 0 mm 2 m/S 760 mmHg 61%
    09:00 -3°C° 0 mm 2 m/S 760 mmHg 59%
    10:00 -4°C° 0 mm 3 m/S 760 mmHg 56%
    11:00 -2°C° 0 mm 3 m/S 760 mmHg 53%
    12:00 -1°C° 0 mm 3 m/S 759 mmHg 50%
    13:00 -1°C° 0 mm 3 m/S 759 mmHg 47%
    14:00 -1°C° 0 mm 3 m/S 758 mmHg 48%
    15:00 -1°C° 0 mm 3 m/S 758 mmHg 50%
    16:00 -1°C° 0 mm 2 m/S 758 mmHg 51%
    17:00 -2°C° 0 mm 2 m/S 758 mmHg 52%
    18:00 -2°C° 0 mm 2 m/S 757 mmHg 53%
    19:00 -2°C° 0 mm 2 m/S 757 mmHg 54%
    20:00 -2°C° 0 mm 2 m/S 757 mmHg 56%
    21:00 -2°C° 0 mm 2 m/S 756 mmHg 57%
    22:00 -2°C° 0 mm 2 m/S 756 mmHg 59%
    23:00 -2°C° 0 mm 2 m/S 756 mmHg 59%

    übermorgen, 22 Januar, Dienstag

    Zeit Temperatur Niederschläge Wind Luftdruck Luftfeuchtigkeit
    00:00 -3°C° 0 mm 2 m/S 755 mmHg 60%
    01:00 -3°C° 0 mm 2 m/S 755 mmHg 60%
    02:00 -3°C° 0 mm 2 m/S 754 mmHg 58%
    03:00 -3°C° 0 mm 2 m/S 753 mmHg 57%
    04:00 -3°C° 0 mm 2 m/S 753 mmHg 55%
    05:00 -3°C° 0 mm 2 m/S 752 mmHg 54%
    06:00 -3°C° 0 mm 2 m/S 752 mmHg 53%
    07:00 -3°C° 0 mm 2 m/S 751 mmHg 52%
    08:00 -4°C° 0 mm 3 m/S 751 mmHg 53%
    09:00 -4°C° 0 mm 3 m/S 750 mmHg 53%
    10:00 -4°C° 0 mm 4 m/S 749 mmHg 54%
    11:00 -3°C° 0 mm 4 m/S 749 mmHg 51%
    12:00 -2°C° 0 mm 4 m/S 748 mmHg 49%
    13:00 -2°C° 0 mm 4 m/S 747 mmHg 47%
    14:00 -2°C° 0 mm 4 m/S 746 mmHg 48%
    15:00 -1°C° 0 mm 3 m/S 746 mmHg 49%
    16:00 -1°C° 0 mm 3 m/S 745 mmHg 50%
    17:00 -1°C° 0 mm 3 m/S 745 mmHg 51%
    18:00 -1°C° 0 mm 3 m/S 745 mmHg 53%
    19:00 -2°C° 0 mm 3 m/S 745 mmHg 55%
    20:00 -2°C° 0 mm 3 m/S 745 mmHg 56%
    21:00 -2°C° 0 mm 3 m/S 745 mmHg 57%
    22:00 -2°C° 0 mm 3 m/S 745 mmHg 58%
    23:00 -2°C° 0 mm 2 m/S 745 mmHg 59%

    23 Januar, Mittwoch

    Zeit Temperatur Niederschläge Wind Luftdruck Luftfeuchtigkeit
    00:00 -2°C° 0 mm 2 m/S 745 mmHg 59%
    01:00 -2°C° 0 mm 2 m/S 745 mmHg 59%
    02:00 -2°C° 0 mm 2 m/S 744 mmHg 60%
    03:00 -3°C° 0 mm 2 m/S 744 mmHg 60%
    04:00 -3°C° 0 mm 2 m/S 744 mmHg 60%
    05:00 -3°C° 0 mm 2 m/S 744 mmHg 63%
    06:00 -3°C° 0 mm 2 m/S 744 mmHg 65%
    07:00 -3°C° 0 mm 2 m/S 745 mmHg 68%
    08:00 -3°C° 0 mm 2 m/S 745 mmHg 69%
    09:00 -3°C° 0 mm 2 m/S 745 mmHg 69%
    10:00 -3°C° 0 mm 2 m/S 746 mmHg 70%
    11:00 -2°C° 0 mm 2 m/S 746 mmHg 66%
    12:00 -2°C° 0 mm 2 m/S 746 mmHg 62%
    13:00 -1°C° 0 mm 2 m/S 746 mmHg 57%
    14:00 -1°C° 0 mm 2 m/S 746 mmHg 58%
    15:00 +1°C° 0 mm 1 m/S 747 mmHg 59%
    16:00 0°C° 0 mm 1 m/S 747 mmHg 59%
    17:00 0°C° 0 mm 1 m/S 748 mmHg 61%
    18:00 -1°C° 0 mm 1 m/S 748 mmHg 63%
    19:00 -1°C° 0 mm 1 m/S 749 mmHg 65%
    20:00 -1°C° 0 mm 1 m/S 749 mmHg 65%
    21:00 -1°C° 0 mm 1 m/S 750 mmHg 66%
    22:00 -1°C° 0 mm 1 m/S 750 mmHg 66%
    23:00 -2°C° 0 mm 1 m/S 750 mmHg 67%

    24 Januar, Donnerstag

    Zeit Temperatur Niederschläge Wind Luftdruck Luftfeuchtigkeit
    00:00 -2°C° 0 mm 1 m/S 751 mmHg 68%
    01:00 -3°C° 0 mm 0 m/S 751 mmHg 68%
    02:00 -3°C° 0 mm 0 m/S 751 mmHg 69%
    03:00 -3°C° 0 mm 0 m/S 751 mmHg 70%
    04:00 -3°C° 0 mm 0 m/S 752 mmHg 71%
    05:00 -3°C° 0 mm 0 m/S 752 mmHg 72%
    06:00 -3°C° 0 mm 0 m/S 752 mmHg 73%
    07:00 -3°C° 0 mm 0 m/S 753 mmHg 73%
    08:00 -3°C° 0 mm 0 m/S 753 mmHg 71%
    09:00 -3°C° 0 mm 0 m/S 753 mmHg 69%
    10:00 -2°C° 0 mm 1 m/S 753 mmHg 67%
    11:00 -1°C° 0 mm 1 m/S 753 mmHg 64%
    12:00 0°C° 0 mm 1 m/S 753 mmHg 60%
    13:00 +1°C° 0 mm 1 m/S 753 mmHg 56%
    14:00 +1°C° 0 mm 1 m/S 754 mmHg 60%
    15:00 +1°C° 0 mm 1 m/S 754 mmHg 64%
    16:00 0°C° 0 mm 1 m/S 754 mmHg 67%
    17:00 0°C° 0 mm 1 m/S 754 mmHg 74%
    18:00 0°C° 0 mm 1 m/S 754 mmHg 80%
    19:00 0°C° 0 mm 1 m/S 754 mmHg 86%
    20:00 0°C° 0 mm 1 m/S 754 mmHg 88%
    21:00 0°C° 0 mm 1 m/S 755 mmHg 89%
    22:00 -2°C° 0 mm 2 m/S 755 mmHg 91%
    23:00 0°C° 0 mm 1 m/S 755 mmHg 92%

    25 Januar, Freitag

    Zeit Temperatur Niederschläge Wind Luftdruck Luftfeuchtigkeit
    00:00 -1°C° 0 mm 1 m/S 755 mmHg 93%
    01:00 -1°C° 0 mm 1 m/S 755 mmHg 93%
    02:00 -3°C° 0 mm 2 m/S 755 mmHg 93%
    03:00 -3°C° 0 mm 2 m/S 755 mmHg 92%
    04:00 -3°C° 0 mm 2 m/S 755 mmHg 91%
    05:00 -3°C° 0 mm 2 m/S 755 mmHg 90%
    06:00 -3°C° 0 mm 2 m/S 755 mmHg 89%
    07:00 -3°C° 0 mm 2 m/S 755 mmHg 88%
    08:00 -2°C° 0 mm 2 m/S 755 mmHg 85%
    09:00 -2°C° 0 mm 2 m/S 755 mmHg 81%
    10:00 -2°C° 0 mm 2 m/S 755 mmHg 78%
    11:00 -1°C° 0 mm 2 m/S 755 mmHg 74%
    12:00 +1°C° 0 mm 2 m/S 755 mmHg 71%
    13:00 +2°C° 0 mm 2 m/S 755 mmHg 67%
    14:00 +1°C° 0 mm 2 m/S 755 mmHg 69%
    15:00 +1°C° 0 mm 2 m/S 755 mmHg 71%
    16:00 -1°C° 0 mm 2 m/S 755 mmHg 73%
    17:00 -1°C° 0 mm 2 m/S 755 mmHg 76%
    18:00 -1°C° 0 mm 2 m/S 755 mmHg 79%
    19:00 -2°C° 0 mm 2 m/S 755 mmHg 81%
    20:00 -2°C° 0 mm 3 m/S 754 mmHg 83%
    21:00 -2°C° 0 mm 3 m/S 754 mmHg 85%
    22:00 -1°C° 0 mm 3 m/S 754 mmHg 86%
    23:00 -1°C° 0.1 mm 3 m/S 753 mmHg 87%
    Mehr zeigen